date,time,water_lv
2018-09-01,00:00:00,240.11
2018-09-01,00:10:00,240.12
2018-09-01,00:20:00,240.12
2018-09-01,00:30:00,240.11
2018-09-01,00:40:00,240.12
2018-09-01,00:50:00,240.11
2018-09-01,01:00:00,240.11
2018-09-01,01:10:00,240.11
2018-09-01,01:20:00,240.11
2018-09-01,01:30:00,240.11
2018-09-01,01:40:00,240.11
2018-09-01,01:50:00,240.11
2018-09-01,02:00:00,240.11
2018-09-01,02:10:00,240.11
2018-09-01,02:20:00,240.11
2018-09-01,02:30:00,240.11
2018-09-01,02:40:00,240.11
2018-09-01,02:50:00,240.11
2018-09-01,03:00:00,240.11
2018-09-01,03:10:00,240.11
2018-09-01,03:20:00,240.11
2018-09-01,03:30:00,240.11
2018-09-01,03:40:00,240.1
2018-09-01,03:50:00,240.11
2018-09-01,04:00:00,240.11
2018-09-01,04:10:00,240.1
2018-09-01,04:20:00,240.1
2018-09-01,04:30:00,240.1
2018-09-01,04:40:00,240.1
2018-09-01,04:50:00,240.1
2018-09-01,05:00:00,240.1
2018-09-01,05:10:00,240.1
2018-09-01,05:20:00,240.1
2018-09-01,05:30:00,240.1
2018-09-01,05:40:00,240.1
2018-09-01,05:50:00,240.1
2018-09-01,06:00:00,240.1
2018-09-01,06:10:00,240.1
2018-09-01,06:20:00,240.1
2018-09-01,06:30:00,240.1
2018-09-01,06:40:00,240.1
2018-09-01,06:50:00,240.1
2018-09-01,07:00:00,240.1
2018-09-01,07:10:00,240.1
2018-09-01,07:20:00,240.1
2018-09-01,07:30:00,240.1
2018-09-01,07:40:00,240.1
2018-09-01,07:50:00,240.09
2018-09-01,08:00:00,240.09
2018-09-01,08:10:00,240.1
2018-09-01,08:20:00,240.09
2018-09-01,08:30:00,240.09
2018-09-01,08:40:00,240.09
2018-09-01,08:50:00,240.09
2018-09-01,09:00:00,240.09
2018-09-01,09:10:00,240.09
2018-09-01,09:20:00,240.09
2018-09-01,09:30:00,240.1
2018-09-01,09:40:00,240.1
2018-09-01,09:50:00,240.1
2018-09-01,10:00:00,240.09
2018-09-01,10:10:00,240.09
2018-09-01,10:20:00,240.1
2018-09-01,10:30:00,240.1
2018-09-01,10:40:00,240.1
2018-09-01,10:50:00,240.1
2018-09-01,11:00:00,240.1
2018-09-01,11:10:00,240.1
2018-09-01,11:20:00,240.1
2018-09-01,11:30:00,240.1
2018-09-01,11:40:00,240.11
2018-09-01,11:50:00,240.11
2018-09-01,12:00:00,240.12
2018-09-01,12:10:00,240.12
2018-09-01,12:20:00,240.12
2018-09-01,12:30:00,240.13
2018-09-01,12:40:00,240.13
2018-09-01,12:50:00,240.13
2018-09-01,13:00:00,240.14
2018-09-01,13:10:00,240.14
2018-09-01,13:20:00,240.15
2018-09-01,13:30:00,240.15
2018-09-01,13:40:00,240.16
2018-09-01,13:50:00,240.16
2018-09-01,14:00:00,240.16
2018-09-01,14:10:00,240.17
2018-09-01,14:20:00,240.17
2018-09-01,14:30:00,240.18
2018-09-01,14:40:00,240.18
2018-09-01,14:50:00,240.19
2018-09-01,15:00:00,240.19
2018-09-01,15:10:00,240.2
2018-09-01,15:20:00,240.2
2018-09-01,15:30:00,240.2
2018-09-01,15:40:00,240.21
2018-09-01,15:50:00,240.21
2018-09-01,16:00:00,240.22
2018-09-01,16:10:00,240.22
2018-09-01,16:20:00,240.22
2018-09-01,16:30:00,240.22
2018-09-01,16:40:00,240.23
2018-09-01,16:50:00,240.23
2018-09-01,17:00:00,240.23
2018-09-01,17:10:00,240.24
2018-09-01,17:20:00,240.24
2018-09-01,17:30:00,240.24
2018-09-01,17:40:00,240.24
2018-09-01,17:50:00,240.24
2018-09-01,18:00:00,240.25
2018-09-01,18:10:00,240.25
2018-09-01,18:20:00,240.25
2018-09-01,18:30:00,240.25
2018-09-01,18:40:00,240.25
2018-09-01,18:50:00,240.25
2018-09-01,19:00:00,240.25
2018-09-01,19:10:00,240.25
2018-09-01,19:20:00,240.25
2018-09-01,19:30:00,240.25
2018-09-01,19:40:00,240.25
2018-09-01,19:50:00,240.25
2018-09-01,20:00:00,240.25
2018-09-01,20:10:00,240.25
2018-09-01,20:20:00,240.25
2018-09-01,20:30:00,240.25
2018-09-01,20:40:00,240.25
2018-09-01,20:50:00,240.25
2018-09-01,21:00:00,240.25
2018-09-01,21:10:00,240.25
2018-09-01,21:20:00,240.25
2018-09-01,21:30:00,240.25
2018-09-01,21:40:00,240.25
2018-09-01,21:50:00,240.25
2018-09-01,22:00:00,240.25
2018-09-01,22:10:00,240.25
2018-09-01,22:20:00,240.25
2018-09-01,22:30:00,240.25
2018-09-01,22:40:00,240.26
2018-09-01,22:50:00,240.26
2018-09-01,23:00:00,240.26
2018-09-01,23:10:00,240.26
2018-09-01,23:20:00,240.26
2018-09-01,23:30:00,240.26
2018-09-01,23:40:00,240.27
2018-09-01,23:50:00,240.27
2018-09-02,00:00:00,240.27
2018-09-02,00:10:00,240.28
2018-09-02,00:20:00,240.28
2018-09-02,00:30:00,240.29
2018-09-02,00:40:00,240.29
2018-09-02,00:50:00,240.29
2018-09-02,01:00:00,240.3
2018-09-02,01:10:00,240.3
2018-09-02,01:20:00,240.31
2018-09-02,01:30:00,240.31
2018-09-02,01:40:00,240.32
2018-09-02,01:50:00,240.32
2018-09-02,02:00:00,240.32
2018-09-02,02:10:00,240.33
2018-09-02,02:20:00,240.33
2018-09-02,02:30:00,240.34
2018-09-02,02:40:00,240.34
2018-09-02,02:50:00,240.35
2018-09-02,03:00:00,240.35
2018-09-02,03:10:00,240.36
2018-09-02,03:20:00,240.36
2018-09-02,03:30:00,240.37
2018-09-02,03:40:00,240.37
2018-09-02,03:50:00,240.38
2018-09-02,04:00:00,240.38
2018-09-02,04:10:00,240.39
2018-09-02,04:20:00,240.39
2018-09-02,04:30:00,240.39
2018-09-02,04:40:00,240.4
2018-09-02,04:50:00,240.4
2018-09-02,05:00:00,240.41
2018-09-02,05:10:00,240.41
2018-09-02,05:20:00,240.41
2018-09-02,05:30:00,240.42
2018-09-02,05:40:00,240.42
2018-09-02,05:50:00,240.43
2018-09-02,06:00:00,240.43
2018-09-02,06:10:00,240.43
2018-09-02,06:20:00,240.44
2018-09-02,06:30:00,240.44
2018-09-02,06:40:00,240.44
2018-09-02,06:50:00,240.44
2018-09-02,07:00:00,240.44
2018-09-02,07:10:00,240.45
2018-09-02,07:20:00,240.45
2018-09-02,07:30:00,240.45
2018-09-02,07:40:00,240.45
2018-09-02,07:50:00,240.45
2018-09-02,08:00:00,240.46
2018-09-02,08:10:00,240.46
2018-09-02,08:20:00,240.46
2018-09-02,08:30:00,240.46
2018-09-02,08:40:00,240.46
2018-09-02,08:50:00,240.46
2018-09-02,09:00:00,240.46
2018-09-02,09:10:00,240.46
2018-09-02,09:20:00,240.46
2018-09-02,09:30:00,240.46
2018-09-02,09:40:00,240.47
2018-09-02,09:50:00,240.47
2018-09-02,10:00:00,240.47
2018-09-02,10:10:00,240.47
2018-09-02,10:20:00,240.47
2018-09-02,10:30:00,240.47
2018-09-02,10:40:00,240.46
2018-09-02,10:50:00,240.46
2018-09-02,11:00:00,240.47
2018-09-02,11:10:00,240.46
2018-09-02,11:20:00,240.46
2018-09-02,11:30:00,240.47
2018-09-02,11:40:00,240.46
2018-09-02,11:50:00,240.46
2018-09-02,12:00:00,240.46
2018-09-02,12:10:00,240.46
2018-09-02,12:20:00,240.46
2018-09-02,12:30:00,240.45
2018-09-02,12:40:00,240.45
2018-09-02,12:50:00,240.45
2018-09-02,13:00:00,240.45
2018-09-02,13:10:00,240.45
2018-09-02,13:20:00,240.45
2018-09-02,13:30:00,240.44
2018-09-02,13:40:00,240.44
2018-09-02,13:50:00,240.44
2018-09-02,14:00:00,240.44
2018-09-02,14:10:00,240.44
2018-09-02,14:20:00,240.43
2018-09-02,14:30:00,240.43
2018-09-02,14:40:00,240.43
2018-09-02,14:50:00,240.43
2018-09-02,15:00:00,240.43
2018-09-02,15:10:00,240.42
2018-09-02,15:20:00,240.42
2018-09-02,15:30:00,240.42
2018-09-02,15:40:00,240.42
2018-09-02,15:50:00,240.41
2018-09-02,16:00:00,240.41
2018-09-02,16:10:00,240.41
2018-09-02,16:20:00,240.41
2018-09-02,16:30:00,240.4
2018-09-02,16:40:00,240.4
2018-09-02,16:50:00,240.4
2018-09-02,17:00:00,240.4
2018-09-02,17:10:00,240.39
2018-09-02,17:20:00,240.39
2018-09-02,17:30:00,240.39
2018-09-02,17:40:00,240.38
2018-09-02,17:50:00,240.38
2018-09-02,18:00:00,240.38
2018-09-02,18:10:00,240.38
2018-09-02,18:20:00,240.37
2018-09-02,18:30:00,240.37
2018-09-02,18:40:00,240.37
2018-09-02,18:50:00,240.36
2018-09-02,19:00:00,240.36
2018-09-02,19:10:00,240.36
2018-09-02,19:20:00,240.35
2018-09-02,19:30:00,240.35
2018-09-02,19:40:00,240.35
2018-09-02,19:50:00,240.35
2018-09-02,20:00:00,240.34
2018-09-02,20:10:00,240.34
2018-09-02,20:20:00,240.34
2018-09-02,20:30:00,240.33
2018-09-02,20:40:00,240.33
2018-09-02,20:50:00,240.33
2018-09-02,21:00:00,240.33
2018-09-02,21:10:00,240.32
2018-09-02,21:20:00,240.32
2018-09-02,21:30:00,240.32
2018-09-02,21:40:00,240.31
2018-09-02,21:50:00,240.31
2018-09-02,22:00:00,240.31
2018-09-02,22:10:00,240.3
2018-09-02,22:20:00,240.3
2018-09-02,22:30:00,240.3
2018-09-02,22:40:00,240.3
2018-09-02,22:50:00,240.3
2018-09-02,23:00:00,240.29
2018-09-02,23:10:00,240.29
2018-09-02,23:20:00,240.29
2018-09-02,23:30:00,240.28
2018-09-02,23:40:00,240.28
2018-09-02,23:50:00,240.28
2018-09-03,00:00:00,240.28
2018-09-03,00:10:00,240.27
2018-09-03,00:20:00,240.27
2018-09-03,00:30:00,240.27
2018-09-03,00:40:00,240.27
2018-09-03,00:50:00,240.26
2018-09-03,01:00:00,240.26
2018-09-03,01:10:00,240.26
2018-09-03,01:20:00,240.26
2018-09-03,01:30:00,240.26
2018-09-03,01:40:00,240.25
2018-09-03,01:50:00,240.25
2018-09-03,02:00:00,240.25
2018-09-03,02:10:00,240.25
2018-09-03,02:20:00,240.24
2018-09-03,02:30:00,240.24
2018-09-03,02:40:00,240.24
2018-09-03,02:50:00,240.24
2018-09-03,03:00:00,240.23
2018-09-03,03:10:00,240.23
2018-09-03,03:20:00,240.23
2018-09-03,03:30:00,240.23
2018-09-03,03:40:00,240.23
2018-09-03,03:50:00,240.22
2018-09-03,04:00:00,240.22
2018-09-03,04:10:00,240.22
2018-09-03,04:20:00,240.22
2018-09-03,04:30:00,240.22
2018-09-03,04:40:00,240.21
2018-09-03,04:50:00,240.21
2018-09-03,05:00:00,240.21
2018-09-03,05:10:00,240.21
2018-09-03,05:20:00,240.21
2018-09-03,05:30:00,240.2
2018-09-03,05:40:00,240.2
2018-09-03,05:50:00,240.2
2018-09-03,06:00:00,240.2
2018-09-03,06:10:00,240.19
2018-09-03,06:20:00,240.19
2018-09-03,06:30:00,240.19
2018-09-03,06:40:00,240.19
2018-09-03,06:50:00,240.19
2018-09-03,07:00:00,240.18
2018-09-03,07:10:00,240.18
2018-09-03,07:20:00,240.18
2018-09-03,07:30:00,240.18
2018-09-03,07:40:00,240.18
2018-09-03,07:50:00,240.18
2018-09-03,08:00:00,240.17
2018-09-03,08:10:00,240.17
2018-09-03,08:20:00,240.17
2018-09-03,08:30:00,240.17
2018-09-03,08:40:00,240.17
2018-09-03,08:50:00,240.16
2018-09-03,09:00:00,240.16
2018-09-03,09:10:00,240.16
2018-09-03,09:20:00,240.16
2018-09-03,09:30:00,240.16
2018-09-03,09:40:00,240.16
2018-09-03,09:50:00,240.16
2018-09-03,10:00:00,240.16
2018-09-03,10:10:00,240.15
2018-09-03,10:20:00,240.15
2018-09-03,10:30:00,240.15
2018-09-03,10:40:00,240.15
2018-09-03,10:50:00,240.15
2018-09-03,11:00:00,240.15
2018-09-03,11:10:00,240.15
2018-09-03,11:20:00,240.14
2018-09-03,11:30:00,240.14
2018-09-03,11:40:00,240.14
2018-09-03,11:50:00,240.14
2018-09-03,12:00:00,240.14
2018-09-03,12:10:00,240.14
2018-09-03,12:20:00,240.14
2018-09-03,12:30:00,240.14
2018-09-03,12:40:00,240.14
2018-09-03,12:50:00,240.13
2018-09-03,13:00:00,240.13
2018-09-03,13:10:00,240.13
2018-09-03,13:20:00,240.13
2018-09-03,13:30:00,240.13
2018-09-03,13:40:00,240.13
2018-09-03,13:50:00,240.13
2018-09-03,14:00:00,240.12
2018-09-03,14:10:00,240.12
2018-09-03,14:20:00,240.12
2018-09-03,14:30:00,240.12
2018-09-03,14:40:00,240.12
2018-09-03,14:50:00,240.12
2018-09-03,15:00:00,240.12
2018-09-03,15:10:00,240.12
2018-09-03,15:20:00,240.12
2018-09-03,15:30:00,240.12
2018-09-03,15:40:00,240.12
2018-09-03,15:50:00,240.11
2018-09-03,16:00:00,240.11
2018-09-03,16:10:00,240.11
2018-09-03,16:20:00,240.11
2018-09-03,16:30:00,240.11
2018-09-03,16:40:00,240.11
2018-09-03,16:50:00,240.11
2018-09-03,17:00:00,240.11
2018-09-03,17:10:00,240.11
2018-09-03,17:20:00,240.11
2018-09-03,17:30:00,240.11
2018-09-03,17:40:00,240.11
2018-09-03,17:50:00,240.11
2018-09-03,18:00:00,240.11
2018-09-03,18:10:00,240.11
2018-09-03,18:20:00,240.1
2018-09-03,18:30:00,240.11
2018-09-03,18:40:00,240.1
2018-09-03,18:50:00,240.1
2018-09-03,19:00:00,240.1
2018-09-03,19:10:00,240.1
2018-09-03,19:20:00,240.1
2018-09-03,19:30:00,240.1
2018-09-03,19:40:00,240.1
2018-09-03,19:50:00,240.1
2018-09-03,20:00:00,240.1
2018-09-03,20:10:00,240.1
2018-09-03,20:20:00,240.1
2018-09-03,20:30:00,240.1
2018-09-03,20:40:00,240.09
2018-09-03,20:50:00,240.1
2018-09-03,21:00:00,240.09
2018-09-03,21:10:00,240.09
2018-09-03,21:20:00,240.09
2018-09-03,21:30:00,240.09
2018-09-03,21:40:00,240.09
2018-09-03,21:50:00,240.09
2018-09-03,22:00:00,240.09
2018-09-03,22:10:00,240.09
2018-09-03,22:20:00,240.09
2018-09-03,22:30:00,240.09
2018-09-03,22:40:00,240.09
2018-09-03,22:50:00,240.09
2018-09-03,23:00:00,240.1
2018-09-03,23:10:00,240.1
2018-09-03,23:20:00,240.1
2018-09-03,23:30:00,240.1
2018-09-03,23:40:00,240.11
2018-09-03,23:50:00,240.11
2018-09-04,00:00:00,240.12
2018-09-04,00:10:00,240.12
2018-09-04,00:20:00,240.13
2018-09-04,00:30:00,240.14
2018-09-04,00:40:00,240.14
2018-09-04,00:50:00,240.15
2018-09-04,01:00:00,240.16
2018-09-04,01:10:00,240.17
2018-09-04,01:20:00,240.18
2018-09-04,01:30:00,240.19
2018-09-04,01:40:00,240.2
2018-09-04,01:50:00,240.21
2018-09-04,02:00:00,240.22
2018-09-04,02:10:00,240.24
2018-09-04,02:20:00,240.25
2018-09-04,02:30:00,240.26
2018-09-04,02:40:00,240.27
2018-09-04,02:50:00,240.29
2018-09-04,03:00:00,240.3
2018-09-04,03:10:00,240.32
2018-09-04,03:20:00,240.33
2018-09-04,03:30:00,240.34
2018-09-04,03:40:00,240.36
2018-09-04,03:50:00,240.37
2018-09-04,04:00:00,240.38
2018-09-04,04:10:00,240.39
2018-09-04,04:20:00,240.41
2018-09-04,04:30:00,240.42
2018-09-04,04:40:00,240.43
2018-09-04,04:50:00,240.45
2018-09-04,05:00:00,240.46
2018-09-04,05:10:00,240.47
2018-09-04,05:20:00,240.49
2018-09-04,05:30:00,240.5
2018-09-04,05:40:00,240.51
2018-09-04,05:50:00,240.52
2018-09-04,06:00:00,240.53
2018-09-04,06:10:00,240.55
2018-09-04,06:20:00,240.56
2018-09-04,06:30:00,240.57
2018-09-04,06:40:00,240.58
2018-09-04,06:50:00,240.59
2018-09-04,07:00:00,240.6
2018-09-04,07:10:00,240.61
2018-09-04,07:20:00,240.62
2018-09-04,07:30:00,240.64
2018-09-04,07:40:00,240.64
2018-09-04,07:50:00,240.66
2018-09-04,08:00:00,240.67
2018-09-04,08:10:00,240.68
2018-09-04,08:20:00,240.69
2018-09-04,08:30:00,240.7
2018-09-04,08:40:00,240.71
2018-09-04,08:50:00,240.72
2018-09-04,09:00:00,240.73
2018-09-04,09:10:00,240.74
2018-09-04,09:20:00,240.76
2018-09-04,09:30:00,240.77
2018-09-04,09:40:00,240.79
2018-09-04,09:50:00,240.8
2018-09-04,10:00:00,240.83
2018-09-04,10:10:00,240.85
2018-09-04,10:20:00,240.87
2018-09-04,10:30:00,240.9
2018-09-04,10:40:00,240.93
2018-09-04,10:50:00,240.96
2018-09-04,11:00:00,241
2018-09-04,11:10:00,241.03
2018-09-04,11:20:00,241.07
2018-09-04,11:30:00,241.11
2018-09-04,11:40:00,241.15
2018-09-04,11:50:00,241.19
2018-09-04,12:00:00,241.24
2018-09-04,12:10:00,241.29
2018-09-04,12:20:00,241.32
2018-09-04,12:30:00,241.37
2018-09-04,12:40:00,241.41
2018-09-04,12:50:00,241.47
2018-09-04,13:00:00,241.52
2018-09-04,13:10:00,241.56
2018-09-04,13:20:00,241.61
2018-09-04,13:30:00,241.65
2018-09-04,13:40:00,241.7
2018-09-04,13:50:00,241.75
2018-09-04,14:00:00,241.8
2018-09-04,14:10:00,241.84
2018-09-04,14:20:00,241.89
2018-09-04,14:30:00,241.94
2018-09-04,14:40:00,241.98
2018-09-04,14:50:00,242.02
2018-09-04,15:00:00,242.07
2018-09-04,15:10:00,242.11
2018-09-04,15:20:00,242.15
2018-09-04,15:30:00,242.2
2018-09-04,15:40:00,242.24
2018-09-04,15:50:00,242.29
2018-09-04,16:00:00,242.33
2018-09-04,16:10:00,242.36
2018-09-04,16:20:00,242.4
2018-09-04,16:30:00,242.44
2018-09-04,16:40:00,242.47
2018-09-04,16:50:00,242.51
2018-09-04,17:00:00,242.54
2018-09-04,17:10:00,242.58
2018-09-04,17:20:00,242.62
2018-09-04,17:30:00,242.65
2018-09-04,17:40:00,242.68
2018-09-04,17:50:00,242.73
2018-09-04,18:00:00,242.78
2018-09-04,18:10:00,242.83
2018-09-04,18:20:00,242.87
2018-09-04,18:30:00,242.9
2018-09-04,18:40:00,242.93
2018-09-04,18:50:00,242.97
2018-09-04,19:00:00,243
2018-09-04,19:10:00,243.02
2018-09-04,19:20:00,243.06
2018-09-04,19:30:00,243.08
2018-09-04,19:40:00,243.1
2018-09-04,19:50:00,243.13
2018-09-04,20:00:00,243.15
2018-09-04,20:10:00,243.18
2018-09-04,20:20:00,243.21
2018-09-04,20:30:00,243.23
2018-09-04,20:40:00,243.26
2018-09-04,20:50:00,243.28
2018-09-04,21:00:00,243.3
2018-09-04,21:10:00,243.32
2018-09-04,21:20:00,243.35
2018-09-04,21:30:00,243.37
2018-09-04,21:40:00,243.38
2018-09-04,21:50:00,243.41
2018-09-04,22:00:00,243.42
2018-09-04,22:10:00,243.44
2018-09-04,22:20:00,243.46
2018-09-04,22:30:00,243.48
2018-09-04,22:40:00,243.5
2018-09-04,22:50:00,243.51
2018-09-04,23:00:00,243.53
2018-09-04,23:10:00,243.55
2018-09-04,23:20:00,243.56
2018-09-04,23:30:00,243.56
2018-09-04,23:40:00,243.58
2018-09-04,23:50:00,243.6
2018-09-05,00:00:00,243.61
2018-09-05,00:10:00,243.62
2018-09-05,00:20:00,243.64
2018-09-05,00:30:00,243.64
2018-09-05,00:40:00,243.65
2018-09-05,00:50:00,243.67
2018-09-05,01:00:00,243.68
2018-09-05,01:10:00,243.69
2018-09-05,01:20:00,243.7
2018-09-05,01:30:00,243.7
2018-09-05,01:40:00,243.73
2018-09-05,01:50:00,243.73
2018-09-05,02:00:00,243.74
2018-09-05,02:10:00,243.75
2018-09-05,02:20:00,243.76
2018-09-05,02:30:00,243.77
2018-09-05,02:40:00,243.78
2018-09-05,02:50:00,243.79
2018-09-05,03:00:00,243.8
2018-09-05,03:10:00,243.81
2018-09-05,03:20:00,243.83
2018-09-05,03:30:00,243.84
2018-09-05,03:40:00,243.86
2018-09-05,03:50:00,243.86
2018-09-05,04:00:00,243.86
2018-09-05,04:10:00,243.89
2018-09-05,04:20:00,243.9
2018-09-05,04:30:00,243.91
2018-09-05,04:40:00,243.92
2018-09-05,04:50:00,243.92
2018-09-05,05:00:00,243.94
2018-09-05,05:10:00,243.95
2018-09-05,05:20:00,243.97
2018-09-05,05:30:00,243.98
2018-09-05,05:40:00,244
2018-09-05,05:50:00,244.01
2018-09-05,06:00:00,244.03
2018-09-05,06:10:00,244.05
2018-09-05,06:20:00,244.06
2018-09-05,06:30:00,244.07
2018-09-05,06:40:00,244.08
2018-09-05,06:50:00,244.1
2018-09-05,07:00:00,244.1
2018-09-05,07:10:00,244.12
2018-09-05,07:20:00,244.13
2018-09-05,07:30:00,244.14
2018-09-05,07:40:00,244.16
2018-09-05,07:50:00,244.17
2018-09-05,08:00:00,244.19
2018-09-05,08:10:00,244.2
2018-09-05,08:20:00,244.21
2018-09-05,08:30:00,244.22
2018-09-05,08:40:00,244.23
2018-09-05,08:50:00,244.25
2018-09-05,09:00:00,244.26
2018-09-05,09:10:00,244.27
2018-09-05,09:20:00,244.28
2018-09-05,09:30:00,244.29
2018-09-05,09:40:00,244.3
2018-09-05,09:50:00,244.31
2018-09-05,10:00:00,244.32
2018-09-05,10:10:00,244.33
2018-09-05,10:20:00,244.34
2018-09-05,10:30:00,244.35
2018-09-05,10:40:00,244.35
2018-09-05,10:50:00,244.37
2018-09-05,11:00:00,244.37
2018-09-05,11:10:00,244.38
2018-09-05,11:20:00,244.39
2018-09-05,11:30:00,244.4
2018-09-05,11:40:00,244.41
2018-09-05,11:50:00,244.41
2018-09-05,12:00:00,244.42
2018-09-05,12:10:00,244.42
2018-09-05,12:20:00,244.43
2018-09-05,12:30:00,244.43
2018-09-05,12:40:00,244.45
2018-09-05,12:50:00,244.45
2018-09-05,13:00:00,244.45
2018-09-05,13:10:00,244.45
2018-09-05,13:20:00,244.46
2018-09-05,13:30:00,244.47
2018-09-05,13:40:00,244.47
2018-09-05,13:50:00,244.47
2018-09-05,14:00:00,244.47
2018-09-05,14:10:00,244.48
2018-09-05,14:20:00,244.48
2018-09-05,14:30:00,244.48
2018-09-05,14:40:00,244.49
2018-09-05,14:50:00,244.49
2018-09-05,15:00:00,244.49
2018-09-05,15:10:00,244.49
2018-09-05,15:20:00,244.49
2018-09-05,15:30:00,244.49
2018-09-05,15:40:00,244.49
2018-09-05,15:50:00,244.49
2018-09-05,16:00:00,244.49
2018-09-05,16:10:00,244.49
2018-09-05,16:20:00,244.49
2018-09-05,16:30:00,244.49
2018-09-05,16:40:00,244.48
2018-09-05,16:50:00,244.48
2018-09-05,17:00:00,244.48
2018-09-05,17:10:00,244.47
2018-09-05,17:20:00,244.47
2018-09-05,17:30:00,244.47
2018-09-05,17:40:00,244.46
2018-09-05,17:50:00,244.46
2018-09-05,18:00:00,244.45
2018-09-05,18:10:00,244.45
2018-09-05,18:20:00,244.45
2018-09-05,18:30:00,244.44
2018-09-05,18:40:00,244.44
2018-09-05,18:50:00,244.43
2018-09-05,19:00:00,244.42
2018-09-05,19:10:00,244.42
2018-09-05,19:20:00,244.41
2018-09-05,19:30:00,244.4
2018-09-05,19:40:00,244.4
2018-09-05,19:50:00,244.39
2018-09-05,20:00:00,244.38
2018-09-05,20:10:00,244.37
2018-09-05,20:20:00,244.36
2018-09-05,20:30:00,244.35
2018-09-05,20:40:00,244.34
2018-09-05,20:50:00,244.33
2018-09-05,21:00:00,244.32
2018-09-05,21:10:00,244.31
2018-09-05,21:20:00,244.3
2018-09-05,21:30:00,244.29
2018-09-05,21:40:00,244.28
2018-09-05,21:50:00,244.27
2018-09-05,22:00:00,244.26
2018-09-05,22:10:00,244.24
2018-09-05,22:20:00,244.24
2018-09-05,22:30:00,244.23
2018-09-05,22:40:00,244.21
2018-09-05,22:50:00,244.2
2018-09-05,23:00:00,244.19
2018-09-05,23:10:00,244.18
2018-09-05,23:20:00,244.16
2018-09-05,23:30:00,244.15
2018-09-05,23:40:00,244.14
2018-09-05,23:50:00,244.13
2018-09-06,00:00:00,244.11
2018-09-06,00:10:00,244.1
2018-09-06,00:20:00,244.08
2018-09-06,00:30:00,244.07
2018-09-06,00:40:00,244.06
2018-09-06,00:50:00,244.04
2018-09-06,01:00:00,244.03
2018-09-06,01:10:00,244.01
2018-09-06,01:20:00,243.99
2018-09-06,01:30:00,243.98
2018-09-06,01:40:00,243.96
2018-09-06,01:50:00,243.95
2018-09-06,02:00:00,243.93
2018-09-06,02:10:00,243.92
2018-09-06,02:20:00,243.91
2018-09-06,02:30:00,243.89
2018-09-06,02:40:00,243.87
2018-09-06,02:50:00,243.86
2018-09-06,03:00:00,243.84
2018-09-06,03:10:00,243.83
2018-09-06,03:20:00,243.81
2018-09-06,03:30:00,243.79
2018-09-06,03:40:00,243.78
2018-09-06,03:50:00,243.77
2018-09-06,04:00:00,243.75
2018-09-06,04:10:00,243.73
2018-09-06,04:20:00,243.71
2018-09-06,04:30:00,243.69
2018-09-06,04:40:00,243.68
2018-09-06,04:50:00,243.66
2018-09-06,05:00:00,243.64
2018-09-06,05:10:00,243.63
2018-09-06,05:20:00,243.61
2018-09-06,05:30:00,243.59
2018-09-06,05:40:00,243.57
2018-09-06,05:50:00,243.55
2018-09-06,06:00:00,243.53
2018-09-06,06:10:00,243.51
2018-09-06,06:20:00,243.49
2018-09-06,06:30:00,243.48
2018-09-06,06:40:00,243.46
2018-09-06,06:50:00,243.44
2018-09-06,07:00:00,243.42
2018-09-06,07:10:00,243.4
2018-09-06,07:20:00,243.38
2018-09-06,07:30:00,243.36
2018-09-06,07:40:00,243.34
2018-09-06,07:50:00,243.32
2018-09-06,08:00:00,243.3
2018-09-06,08:10:00,243.28
2018-09-06,08:20:00,243.26
2018-09-06,08:30:00,243.24
2018-09-06,08:40:00,243.22
2018-09-06,08:50:00,243.2
2018-09-06,09:00:00,243.18
2018-09-06,09:10:00,243.16
2018-09-06,09:20:00,243.14
2018-09-06,09:30:00,243.13
2018-09-06,09:40:00,243.1
2018-09-06,09:50:00,243.09
2018-09-06,10:00:00,243.06
2018-09-06,10:10:00,243.04
2018-09-06,10:20:00,243.02
2018-09-06,10:30:00,243
2018-09-06,10:40:00,242.98
2018-09-06,10:50:00,242.96
2018-09-06,11:00:00,242.94
2018-09-06,11:10:00,242.92
2018-09-06,11:20:00,242.89
2018-09-06,11:30:00,242.88
2018-09-06,11:40:00,242.85
2018-09-06,11:50:00,242.83
2018-09-06,12:00:00,242.82
2018-09-06,12:10:00,242.79
2018-09-06,12:20:00,242.77
2018-09-06,12:30:00,242.75
2018-09-06,12:40:00,242.73
2018-09-06,12:50:00,242.71
2018-09-06,13:00:00,242.69
2018-09-06,13:10:00,242.66
2018-09-06,13:20:00,242.65
2018-09-06,13:30:00,242.62
2018-09-06,13:40:00,242.6
2018-09-06,13:50:00,242.58
2018-09-06,14:00:00,242.56
2018-09-06,14:10:00,242.54
2018-09-06,14:20:00,242.52
2018-09-06,14:30:00,242.5
2018-09-06,14:40:00,242.48
2018-09-06,14:50:00,242.46
2018-09-06,15:00:00,242.44
2018-09-06,15:10:00,242.42
2018-09-06,15:20:00,242.39
2018-09-06,15:30:00,242.37
2018-09-06,15:40:00,242.36
2018-09-06,15:50:00,242.34
2018-09-06,16:00:00,242.32
2018-09-06,16:10:00,242.3
2018-09-06,16:20:00,242.28
2018-09-06,16:30:00,242.26
2018-09-06,16:40:00,242.24
2018-09-06,16:50:00,242.22
2018-09-06,17:00:00,242.2
2018-09-06,17:10:00,242.19
2018-09-06,17:20:00,242.17
2018-09-06,17:30:00,242.15
2018-09-06,17:40:00,242.13
2018-09-06,17:50:00,242.11
2018-09-06,18:00:00,242.1
2018-09-06,18:10:00,242.08
2018-09-06,18:20:00,242.06
2018-09-06,18:30:00,242.04
2018-09-06,18:40:00,242.03
2018-09-06,18:50:00,242.01
2018-09-06,19:00:00,241.99
2018-09-06,19:10:00,241.97
2018-09-06,19:20:00,241.96
2018-09-06,19:30:00,241.94
2018-09-06,19:40:00,241.92
2018-09-06,19:50:00,241.91
2018-09-06,20:00:00,241.89
2018-09-06,20:10:00,241.87
2018-09-06,20:20:00,241.85
2018-09-06,20:30:00,241.84
2018-09-06,20:40:00,241.82
2018-09-06,20:50:00,241.81
2018-09-06,21:00:00,241.79
2018-09-06,21:10:00,241.77
2018-09-06,21:20:00,241.76
2018-09-06,21:30:00,241.74
2018-09-06,21:40:00,241.73
2018-09-06,21:50:00,241.71
2018-09-06,22:00:00,241.7
2018-09-06,22:10:00,241.68
2018-09-06,22:20:00,241.66
2018-09-06,22:30:00,241.65
2018-09-06,22:40:00,241.64
2018-09-06,22:50:00,241.62
2018-09-06,23:00:00,241.61
2018-09-06,23:10:00,241.59
2018-09-06,23:20:00,241.58
2018-09-06,23:30:00,241.56
2018-09-06,23:40:00,241.55
2018-09-06,23:50:00,241.54
2018-09-07,00:00:00,241.52
2018-09-07,00:10:00,241.51
2018-09-07,00:20:00,241.5
2018-09-07,00:30:00,241.48
2018-09-07,00:40:00,241.47
2018-09-07,00:50:00,241.46
2018-09-07,01:00:00,241.45
2018-09-07,01:10:00,241.43
2018-09-07,01:20:00,241.42
2018-09-07,01:30:00,241.41
2018-09-07,01:40:00,241.4
2018-09-07,01:50:00,241.39
2018-09-07,02:00:00,241.37
2018-09-07,02:10:00,241.36
2018-09-07,02:20:00,241.35
2018-09-07,02:30:00,241.34
2018-09-07,02:40:00,241.33
2018-09-07,02:50:00,241.32
2018-09-07,03:00:00,241.31
2018-09-07,03:10:00,241.3
2018-09-07,03:20:00,241.29
2018-09-07,03:30:00,241.27
2018-09-07,03:40:00,241.27
2018-09-07,03:50:00,241.26
2018-09-07,04:00:00,241.24
2018-09-07,04:10:00,241.23
2018-09-07,04:20:00,241.22
2018-09-07,04:30:00,241.22